Time,TemperatureF,DewpointF,PressureIn,WindDirection,WindDirectionDegrees,WindSpeedMPH,WindSpeedGustMPH,Humidity,HourlyPrecipIn,Conditions,Clouds,dailyrainin,SoftwareType,DateUTC
2013-05-17 00:03:00,76.0,67.0,-100.00,ENE,73,8.0,14.0,73,0.00,,,0.00,,2013-05-17 10:03:00,
2013-05-17 00:12:00,76.0,67.0,-100.00,ENE,73,8.0,14.0,73,0.00,,,0.00,,2013-05-17 10:12:00,
2013-05-17 00:23:00,76.0,67.0,-100.00,ENE,73,8.0,14.0,73,0.00,,,0.00,,2013-05-17 10:23:00,
2013-05-17 00:32:00,76.0,67.0,-100.00,ENE,73,8.0,14.0,73,0.00,,,0.00,,2013-05-17 10:32:00,
2013-05-17 00:41:00,76.0,67.0,-100.00,NE,41,7.0,14.0,74,0.00,,,0.00,,2013-05-17 10:41:00,
2013-05-17 01:02:00,76.0,67.0,-100.00,NE,41,7.0,14.0,74,0.00,,,0.00,,2013-05-17 11:02:00,
2013-05-17 01:12:00,76.0,67.0,-100.00,NE,41,7.0,14.0,74,0.00,,,0.00,,2013-05-17 11:12:00,
2013-05-17 01:22:00,76.0,67.0,-100.00,NE,41,7.0,14.0,74,0.00,,,0.00,,2013-05-17 11:22:00,
2013-05-17 01:33:00,76.0,67.0,-100.00,NE,41,7.0,14.0,74,0.00,,,0.00,,2013-05-17 11:33:00,
2013-05-17 01:41:00,74.0,65.0,-100.00,NNE,20,4.0,12.0,74,0.00,,,0.00,,2013-05-17 11:41:00,
2013-05-17 02:03:00,74.0,65.0,-100.00,NNE,20,4.0,12.0,74,0.00,,,0.00,,2013-05-17 12:03:00,
2013-05-17 02:12:00,74.0,65.0,-100.00,NNE,20,4.0,12.0,74,0.00,,,0.00,,2013-05-17 12:12:00,
2013-05-17 02:23:00,74.0,65.0,-100.00,NNE,20,4.0,12.0,74,0.00,,,0.00,,2013-05-17 12:23:00,
2013-05-17 02:32:00,74.0,65.0,-100.00,NNE,20,4.0,12.0,74,0.00,,,0.00,,2013-05-17 12:32:00,
2013-05-17 02:41:00,75.0,66.0,-100.00,NE,46,7.0,13.0,74,0.00,,,0.00,,2013-05-17 12:41:00,
2013-05-17 03:03:00,75.0,66.0,-100.00,NE,46,7.0,13.0,74,0.00,,,0.00,,2013-05-17 13:03:00,
2013-05-17 03:12:00,75.0,66.0,-100.00,NE,46,7.0,13.0,74,0.00,,,0.00,,2013-05-17 13:12:00,
2013-05-17 03:23:00,75.0,66.0,-100.00,NE,46,7.0,13.0,74,0.00,,,0.00,,2013-05-17 13:23:00,
2013-05-17 03:33:00,75.0,66.0,-100.00,NE,46,7.0,13.0,74,0.00,,,0.00,,2013-05-17 13:33:00,
2013-05-17 03:41:00,74.0,65.0,-100.00,NNE,19,4.0,12.0,73,0.00,,,0.00,,2013-05-17 13:41:00,
2013-05-17 04:02:00,74.0,65.0,-100.00,NNE,19,4.0,12.0,73,0.00,,,0.00,,2013-05-17 14:02:00,
2013-05-17 04:12:00,74.0,65.0,-100.00,NNE,19,4.0,12.0,73,0.00,,,0.00,,2013-05-17 14:12:00,
2013-05-17 04:22:00,74.0,65.0,-100.00,NNE,19,4.0,12.0,73,0.00,,,0.00,,2013-05-17 14:22:00,
2013-05-17 04:34:00,74.0,65.0,-100.00,NNE,19,4.0,12.0,73,0.00,,,0.00,,2013-05-17 14:34:00,
2013-05-17 04:41:00,74.0,66.0,-100.00,NNE,25,4.0,7.0,75,0.00,,,0.00,,2013-05-17 14:41:00,
2013-05-17 05:03:00,74.0,66.0,-100.00,NNE,25,4.0,7.0,75,0.00,,,0.00,,2013-05-17 15:03:00,
2013-05-17 05:13:00,74.0,66.0,-100.00,NNE,25,4.0,7.0,75,0.00,,,0.00,,2013-05-17 15:13:00,
2013-05-17 05:25:00,74.0,66.0,-100.00,NNE,25,4.0,7.0,75,0.00,,,0.00,,2013-05-17 15:25:00,
2013-05-17 05:37:00,74.0,66.0,-100.00,NNE,25,4.0,7.0,75,0.00,,,0.00,,2013-05-17 15:37:00,
2013-05-17 05:41:00,73.0,65.0,-100.00,North,354,5.0,10.0,76,0.00,,,0.00,,2013-05-17 15:41:00,
2013-05-17 06:07:00,73.0,65.0,-100.00,North,354,5.0,10.0,76,0.00,,,0.00,,2013-05-17 16:07:00,
2013-05-17 06:13:00,73.0,65.0,-100.00,North,354,5.0,10.0,76,0.00,,,0.00,,2013-05-17 16:13:00,
2013-05-17 06:26:00,73.0,65.0,-100.00,North,354,5.0,10.0,76,0.00,,,0.00,,2013-05-17 16:26:00,
2013-05-17 06:37:00,73.0,65.0,-100.00,North,354,5.0,10.0,76,0.00,,,0.00,,2013-05-17 16:37:00,
2013-05-17 06:41:00,73.0,65.0,-100.00,NNW,348,5.0,9.0,76,0.00,,,0.00,,2013-05-17 16:41:00,
2013-05-17 07:08:00,73.0,65.0,-100.00,NNW,348,5.0,9.0,76,0.00,,,0.00,,2013-05-17 17:08:00,
2013-05-17 07:18:00,73.0,65.0,-100.00,NNW,348,5.0,9.0,76,0.00,,,0.00,,2013-05-17 17:18:00,
2013-05-17 07:29:00,73.0,65.0,-100.00,NNW,348,5.0,9.0,76,0.00,,,0.00,,2013-05-17 17:29:00,
2013-05-17 07:40:00,73.0,-99.9,-100.00,NNW,348,5.0,9.0,76,0.00,,,0.00,,2013-05-17 17:40:00,
2013-05-17 07:41:00,-999.0,-99.9,-100.00,ENE,77,7.0,12.0,76,0.00,,,0.00,,2013-05-17 17:41:00,
2013-05-17 08:08:00,76.0,68.0,-100.00,ENE,77,7.0,12.0,76,0.00,,,0.00,,2013-05-17 18:08:00,
2013-05-17 08:20:00,76.0,68.0,-100.00,ENE,77,7.0,12.0,76,0.00,,,0.00,,2013-05-17 18:20:00,
2013-05-17 08:30:00,76.0,68.0,-100.00,ENE,77,7.0,12.0,76,0.00,,,0.00,,2013-05-17 18:30:00,
2013-05-17 08:40:00,76.0,-99.9,-100.00,ENE,77,7.0,12.0,76,0.00,,,0.00,,2013-05-17 18:40:00,
2013-05-17 08:41:00,77.0,68.0,-100.00,East,81,10.0,14.0,73,0.00,,,0.00,,2013-05-17 18:41:00,
2013-05-17 09:10:00,77.0,68.0,-100.00,East,81,10.0,14.0,73,0.00,,,0.00,,2013-05-17 19:10:00,
2013-05-17 09:20:00,77.0,68.0,-100.00,East,81,10.0,14.0,73,0.00,,,0.00,,2013-05-17 19:20:00,
2013-05-17 09:30:00,77.0,68.0,-100.00,East,81,10.0,14.0,73,0.00,,,0.00,,2013-05-17 19:30:00,
2013-05-17 09:40:00,77.0,68.0,-100.00,East,81,10.0,14.0,73,0.00,,,0.00,,2013-05-17 19:40:00,
2013-05-17 09:41:00,78.0,67.0,-100.00,ENE,78,9.0,15.0,70,0.00,,,0.00,,2013-05-17 19:41:00,
2013-05-17 10:09:00,78.0,67.0,-100.00,ENE,78,9.0,15.0,70,0.00,,,0.00,,2013-05-17 20:09:00,
2013-05-17 10:20:00,78.0,67.0,-100.00,ENE,78,9.0,15.0,70,0.00,,,0.00,,2013-05-17 20:20:00,
2013-05-17 10:30:00,78.0,67.0,-100.00,ENE,78,9.0,15.0,70,0.00,,,0.00,,2013-05-17 20:30:00,
2013-05-17 10:40:00,78.0,67.0,-100.00,ENE,78,9.0,15.0,70,0.00,,,0.00,,2013-05-17 20:40:00,
2013-05-17 10:41:00,80.0,68.0,-100.00,East,82,11.0,17.0,66,0.00,,,0.00,,2013-05-17 20:41:00,
2013-05-17 11:07:00,80.0,68.0,-100.00,East,82,11.0,17.0,66,0.00,,,0.00,,2013-05-17 21:07:00,
2013-05-17 11:16:00,80.0,68.0,-100.00,East,82,11.0,17.0,66,0.00,,,0.00,,2013-05-17 21:16:00,
2013-05-17 11:26:00,80.0,68.0,-100.00,East,82,11.0,17.0,66,0.00,,,0.00,,2013-05-17 21:26:00,
2013-05-17 11:39:00,80.0,68.0,-100.00,East,82,11.0,17.0,66,0.00,,,0.00,,2013-05-17 21:39:00,
2013-05-17 11:41:00,81.0,66.0,-100.00,ENE,68,9.0,19.0,61,0.00,,,0.00,,2013-05-17 21:41:00,
2013-05-17 12:06:00,81.0,66.0,-100.00,ENE,68,9.0,19.0,61,0.00,,,0.00,,2013-05-17 22:06:00,
2013-05-17 12:17:00,81.0,66.0,-100.00,ENE,68,9.0,19.0,61,0.00,,,0.00,,2013-05-17 22:17:00,
2013-05-17 12:28:00,81.0,66.0,-100.00,ENE,68,9.0,19.0,61,0.00,,,0.00,,2013-05-17 22:28:00,
2013-05-17 12:38:00,81.0,66.0,-100.00,ENE,68,9.0,19.0,61,0.00,,,0.00,,2013-05-17 22:38:00,
2013-05-17 12:41:00,81.0,65.0,-100.00,ENE,64,9.0,17.0,59,0.00,,,0.00,,2013-05-17 22:41:00,
2013-05-17 13:04:00,81.0,65.0,-100.00,ENE,64,9.0,17.0,59,0.00,,,0.00,,2013-05-17 23:04:00,
2013-05-17 13:13:00,81.0,65.0,-100.00,ENE,64,9.0,17.0,59,0.00,,,0.00,,2013-05-17 23:13:00,
2013-05-17 13:23:00,81.0,65.0,-100.00,ENE,64,9.0,17.0,59,0.00,,,0.00,,2013-05-17 23:23:00,
2013-05-17 13:37:00,81.0,65.0,-100.00,ENE,64,9.0,17.0,59,0.00,,,0.00,,2013-05-17 23:37:00,
2013-05-17 13:41:00,82.0,66.0,-100.00,East,83,11.0,16.0,58,0.00,,,0.00,,2013-05-17 23:41:00,
2013-05-17 14:02:00,82.0,66.0,-100.00,East,83,11.0,16.0,58,0.00,,,0.00,,2013-05-18 00:02:00,
2013-05-17 14:14:00,82.0,66.0,-100.00,East,83,11.0,16.0,58,0.00,,,0.00,,2013-05-18 00:14:00,
2013-05-17 14:21:00,82.0,66.0,-100.00,East,83,11.0,16.0,58,0.00,,,0.00,,2013-05-18 00:21:00,
2013-05-17 14:33:00,82.0,66.0,-100.00,East,83,11.0,16.0,58,0.00,,,0.00,,2013-05-18 00:33:00,
2013-05-17 14:41:00,80.0,64.0,-100.00,East,90,12.0,18.0,58,0.00,,,0.00,,2013-05-18 00:41:00,
2013-05-17 15:02:00,80.0,64.0,-100.00,East,90,12.0,18.0,58,0.00,,,0.00,,2013-05-18 01:02:00,
2013-05-17 15:13:00,80.0,64.0,-100.00,East,90,12.0,18.0,58,0.00,,,0.00,,2013-05-18 01:13:00,
2013-05-17 15:24:00,80.0,64.0,-100.00,East,90,12.0,18.0,58,0.00,,,0.00,,2013-05-18 01:24:00,
2013-05-17 15:31:00,80.0,64.0,-100.00,East,90,12.0,18.0,58,0.00,,,0.00,,2013-05-18 01:31:00,
2013-05-17 15:41:00,81.0,65.0,-100.00,ENE,74,9.0,18.0,58,0.00,,,0.00,,2013-05-18 01:41:00,
2013-05-17 16:02:00,81.0,65.0,-100.00,ENE,74,9.0,18.0,58,0.00,,,0.00,,2013-05-18 02:02:00,
2013-05-17 16:11:00,81.0,65.0,-100.00,ENE,74,9.0,18.0,58,0.00,,,0.00,,2013-05-18 02:11:00,
2013-05-17 16:22:00,81.0,65.0,-100.00,ENE,74,9.0,18.0,58,0.00,,,0.00,,2013-05-18 02:22:00,
2013-05-17 16:31:00,81.0,65.0,-100.00,ENE,74,9.0,18.0,58,0.00,,,0.00,,2013-05-18 02:31:00,
2013-05-17 16:41:00,81.0,64.0,-100.00,East,86,10.0,18.0,56,0.00,,,0.00,,2013-05-18 02:41:00,
2013-05-17 17:02:00,81.0,64.0,-100.00,East,86,10.0,18.0,56,0.00,,,0.00,,2013-05-18 03:02:00,
2013-05-17 17:12:00,81.0,64.0,-100.00,East,86,10.0,18.0,56,0.00,,,0.00,,2013-05-18 03:12:00,
2013-05-17 17:22:00,81.0,64.0,-100.00,East,86,10.0,18.0,56,0.00,,,0.00,,2013-05-18 03:22:00,
2013-05-17 17:32:00,81.0,64.0,-100.00,East,86,10.0,18.0,56,0.00,,,0.00,,2013-05-18 03:32:00,
2013-05-17 17:41:00,80.0,64.0,-100.00,NE,55,8.0,16.0,58,0.00,,,0.00,,2013-05-18 03:41:00,
2013-05-17 18:02:00,80.0,64.0,-100.00,NE,55,8.0,16.0,58,0.00,,,0.00,,2013-05-18 04:02:00,
2013-05-17 18:12:00,80.0,64.0,-100.00,NE,55,8.0,16.0,58,0.00,,,0.00,,2013-05-18 04:12:00,
2013-05-17 18:23:00,80.0,64.0,-100.00,NE,55,8.0,16.0,58,0.00,,,0.00,,2013-05-18 04:23:00,
2013-05-17 18:32:00,80.0,64.0,-100.00,NE,55,8.0,16.0,58,0.00,,,0.00,,2013-05-18 04:32:00,
2013-05-17 18:41:00,78.0,63.0,-100.00,NE,52,8.0,15.0,60,0.00,,,0.00,,2013-05-18 04:41:00,
2013-05-17 19:02:00,78.0,63.0,-100.00,NE,52,8.0,15.0,60,0.00,,,0.00,,2013-05-18 05:02:00,
2013-05-17 19:12:00,78.0,63.0,-100.00,NE,52,8.0,15.0,60,0.00,,,0.00,,2013-05-18 05:12:00,
2013-05-17 19:22:00,78.0,63.0,-100.00,NE,52,8.0,15.0,60,0.00,,,0.00,,2013-05-18 05:22:00,
2013-05-17 19:31:00,78.0,63.0,-100.00,NE,52,8.0,15.0,60,0.00,,,0.00,,2013-05-18 05:31:00,
2013-05-17 19:41:00,77.0,64.0,-100.00,NE,45,5.0,10.0,64,0.00,,,0.00,,2013-05-18 05:41:00,
2013-05-17 20:02:00,77.0,64.0,-100.00,NE,45,5.0,10.0,64,0.00,,,0.00,,2013-05-18 06:02:00,
2013-05-17 20:11:00,77.0,64.0,-100.00,NE,45,5.0,10.0,64,0.00,,,0.00,,2013-05-18 06:11:00,
2013-05-17 20:22:00,77.0,64.0,-100.00,NE,45,5.0,10.0,64,0.00,,,0.00,,2013-05-18 06:22:00,
2013-05-17 20:31:00,77.0,64.0,-100.00,NE,45,5.0,10.0,64,0.00,,,0.00,,2013-05-18 06:31:00,
2013-05-17 20:41:00,76.0,63.0,-100.00,NE,51,6.0,14.0,65,0.00,,,0.00,,2013-05-18 06:41:00,
2013-05-17 21:01:00,76.0,63.0,-100.00,NE,51,6.0,14.0,65,0.00,,,0.00,,2013-05-18 07:01:00,
2013-05-17 21:11:00,76.0,63.0,-100.00,NE,51,6.0,14.0,65,0.00,,,0.00,,2013-05-18 07:11:00,
2013-05-17 21:21:00,76.0,63.0,-100.00,NE,51,6.0,14.0,65,0.00,,,0.00,,2013-05-18 07:21:00,
2013-05-17 21:31:00,76.0,63.0,-100.00,NE,51,6.0,14.0,65,0.00,,,0.00,,2013-05-18 07:31:00,
2013-05-17 21:41:00,74.0,62.0,-100.00,NW,319,5.0,10.0,67,0.00,,,0.00,,2013-05-18 07:41:00,
2013-05-17 22:01:00,74.0,62.0,-100.00,NW,319,5.0,10.0,67,0.00,,,0.00,,2013-05-18 08:01:00,
2013-05-17 22:11:00,74.0,62.0,-100.00,NW,319,5.0,10.0,67,0.00,,,0.00,,2013-05-18 08:11:00,
2013-05-17 22:21:00,74.0,62.0,-100.00,NW,319,5.0,10.0,67,0.00,,,0.00,,2013-05-18 08:21:00,
2013-05-17 22:32:00,74.0,62.0,-100.00,NW,319,5.0,10.0,67,0.00,,,0.00,,2013-05-18 08:32:00,
2013-05-17 22:41:00,73.0,63.0,-100.00,NNW,330,5.0,7.0,70,0.00,,,0.00,,2013-05-18 08:41:00,
2013-05-17 23:02:00,73.0,63.0,-100.00,NNW,330,5.0,7.0,70,0.00,,,0.00,,2013-05-18 09:02:00,
2013-05-17 23:11:00,73.0,63.0,-100.00,NNW,330,5.0,7.0,70,0.00,,,0.00,,2013-05-18 09:11:00,
2013-05-17 23:22:00,73.0,63.0,-100.00,NNW,330,5.0,7.0,70,0.00,,,0.00,,2013-05-18 09:22:00,
2013-05-17 23:32:00,73.0,63.0,-100.00,NNW,330,5.0,7.0,70,0.00,,,0.00,,2013-05-18 09:32:00,
2013-05-17 23:41:00,74.0,65.0,-100.00,NNW,344,4.0,8.0,73,0.00,,,0.00,,2013-05-18 09:41:00,